Regional Weather Roundup
Issued by NWS Charleston, SC

Current Version | Previous Version | Graphics & Text | Print | Product List | Glossary On
Versions: 1 2 3 4 5 6 7 8 9 10 11 12 13 14 15 16 17 18 19 20 21 22 23 24 25 26 27 28 29 30 31 32 33 34 35 36 37 38 39 40 41 42 43 44 45 46 47 48 49 50
000
ASUS42 KCHS 292312
RWRCHS

REGIONAL WEATHER ROUNDUP
NATIONAL WEATHER SERVICE CHARLESTON SC
700 PM EDT MON JUN 29 2015

NOTE: "FAIR" INDICATES FEW OR NO CLOUDS BELOW 12,000 FEET WITH NO
SIGNIFICANT WEATHER AND/OR OBSTRUCTIONS TO VISIBILITY.

NOT ALL STATIONS ARE QUALITY CONTROLLED BY THE NATIONAL
WEATHER SERVICE. USE DATA WITH CAUTION...ESPECIALLY
DEWPOINT OBSERVATIONS.

SCZ027-030-031-034>040-042>050-300000-
...SOUTHEAST SOUTH CAROLINA...

CITY           SKY/WX    TMP DP  RH WIND       PRES   REMARKS
N CHARLESTON   PTSUNNY   86  61  42 SW10      29.95S
WATERFRONT PAR   N/A     83  72  69 SW10      29.94R
MOUNT PLEASANT LGT RAIN  84  72  65 S9G16     29.96R
JOHNS ISLAND   FAIR      82  73  74 S10       29.97R
PINOPOLIS      NOT AVBL
MONCKS CORNER  FAIR      86  57  37 SW5       29.94S
SUMMERVILLE    NOT AVBL
BEAUFORT MCAS  PTSUNNY   86  67  52 S3        29.96S
BEAUFORT ARPT  FAIR      84  64  51 SW3       29.96S
HILTON HEAD IS MOSUNNY   82  72  69 S8        29.98R
WALTERBORO     MOCLDY    84  61  45 SW7       29.96S
ALLENDALE      FAIR      88  57  35 VRB5      29.95R

...SOUTHERN MIDLANDS AND PEE DEE...

CITY           SKY/WX    TMP DP  RH WIND       PRES   REMARKS
GEORGETOWN     NOT AVBL
KINGSTREE      NOT AVBL
ORANGEBURG     MOSUNNY   88  53  30 W6        29.95R
BARNWELL       FAIR      90  57  33 W6        29.96R
AIKEN          FAIR     N/A N/A N/A W6        29.99R
MANNING        FAIR     N/A N/A N/A W5        29.94R
COLUMBIA       PTSUNNY   87  55  33 W10       29.93S
SUMTER         MOSUNNY   86  57  36 SW10      29.92R
FLORENCE       PTSUNNY   89  55  31 SW6       29.92S
MYRTLE BEACH   NOT AVBL
N MYRTLE BEACH SUNNY     84  71  65 S14       29.94R

$$

GAZ063-065-086>088-099>101-113>116-118-119-134>141-150-300000-
...SOUTHEAST GEORGIA...

CITY           SKY/WX    TMP DP  RH WIND       PRES   REMARKS
SAVANNAH ARPT  PTSUNNY   85  63  47 S9        29.97S
HUNTER AAF     PTSUNNY   86  66  50 S6        29.96R
FORT STEWART   MOSUNNY   86  62  44 SW8       29.96R
STATESBORO     MOSUNNY   88  66  47 W5        29.96S HX  90
SYLVANIA       PTCLDY    89  63  42 NW3       29.97R HX  90
CLAXTON        FAIR      86  68  54 CALM      29.97R

...CSRA...CENTRAL AND FAR SOUTHEAST GEORGIA...

CITY           SKY/WX    TMP DP  RH WIND       PRES   REMARKS
THOMSON        SUNNY     89  62  40 SW5       29.99S
AUGUSTA-BUSH   MOSUNNY   89  56  32 W8        29.93S
AUGUSTA-DANIEL MOSUNNY   88  56  33 VRB5      29.96R
SWAINSBORO     FAIR      88  63  42 SW3       29.98R
VIDALIA        MOSUNNY   86  61  42 W3        29.98R
EASTMAN        FAIR      88  60  39 W5        30.00S
HAZLEHURST     FAIR      87  63  44 W5        29.98R
ALMA           SUNNY     86  61  42 SW5       29.98S
WAYCROSS       SUNNY     89  67  47 W3        29.99R HX  92
JESUP          FAIR      88  66  48 CALM      29.99R HX  90
BAXLEY         FAIR      88  63  42 W5        29.98R
BRUNSWICK      MOSUNNY   86  68  54 W3        30.00R
SAINT SIMONS   MOSUNNY   85  69  58 SW6       29.99R

$$

SCZ027-028-034-036>038-045-046-048>050-GAZ119-141-300000-
...LAKE AND SUPPLEMENTAL COASTAL OBSERVATIONS...

STATION/POSITION TIME  TEMP    WIND        PRES    WAVE   SWELL
                       AIR SEA DIR/SP/G            HT/PER HT/PER/DIR
                 (UTC) (F)     (DEG/KT/KT) (MB)    (FT/S) (FT/S/D)
UPR LAKE MARION  NOT AVBL
WINYAH BAY       2145   89     250/  6     1013.0
LAKE MURRAY      2200   86     260/ 11/ 15 1012.9S
ACE BASIN NERRS  NOT AVBL
FORT PULASKI     2200   86 84  270/  7/  7 1015.2R
SAPELO ISLAND    2200   87     270/  6     1015.0S

$$

ANZ835-935-AMZ111-154-330-350-352-354-370-450-454-472-300000-
...C-MAN AND BUOY OBSERVATIONS...

STATION/POSITION TIME  TEMP    WIND        PRES    WAVE   SWELL
                       AIR SEA DIR/SP/G            HT/PER HT/PER/DIR
                 (UTC) (F)     (DEG/KT/KT) (MB)    (FT/S) (FT/S/D)
BUOY 41004       2250   82 83  210/ 12/ 14 1014.5R   4/ 7   3/ 7
BUOY 41008       2250   80 80  180/ 12/ 14 1015.7R   2/ 9   2/110/ 9
FOLLY BEACH CMAN 2200   82     210/ 14/ 16 1014.6R
CAPERS NEARSHORE 2208   83     220/ 16/ 19 1014.5R
FRIPP NEARSHORE  2200   83     210/ 12/ 16 1014.4R


STATION/POSITION TIME  TEMP    WIND        PRES    WAVE   SWELL
                       AIR SEA DIR/SP/G            HT/PER HT/PER/DIR
                 (UTC) (F)     (DEG/KT/KT) (MB)    (FT/S) (FT/S/D)
5E ST. MARYS GA  2221      78                N/A     2/ 9
FRYING PAN BUOY  2250   82 81  210/ 14/ 16 1014.6R   4/ 7   3/140/ 7
BUOY 41025       2250   79 81  260/  4/  8 1014.2R   4/ 8   3/150/ 8
CAPE LOOKOUT NC  2200   81     200/  9/ 12 1013.5F
BUOY 41002       2250   81 80  210/ 17/ 21 1017.6R   6/ 7
BUOY 41010       2220   83 85  240/ 16/ 19 1017.7R
ST AUGUSTINE FL  2300   76 74  140/ 11/ 11 1017.3S


$$



USA.gov is the U.S. government's official web portal to all federal, state and local government web resources and services.